Hourly Weather Cave Spring

Today, 30 July, Friday

Time Temperature Precipitation Wind Pressure Humidity
00:00 +25°C° 0.7 mm 1 mps 728 mmHg 81%
01:00 +23°C° 0.7 mm 1 mps 728 mmHg 92%
02:00 +23°C° 0.7 mm 1 mps 728 mmHg 92%
03:00 +23°C° 0.7 mm 1 mps 727 mmHg 93%
04:00 +21°C° 0.7 mm 2 mps 727 mmHg 94%
05:00 +23°C° 0 mm 2 mps 727 mmHg 93%
06:00 +23°C° 0 mm 1 mps 727 mmHg 92%
07:00 +24°C° 0 mm 1 mps 728 mmHg 91%
08:00 +26°C° 0 mm 2 mps 728 mmHg 79%
09:00 +29°C° 0 mm 3 mps 728 mmHg 66%
10:00 +31°C° 0 mm 3 mps 728 mmHg 54%
11:00 +33°C° 0 mm 3 mps 728 mmHg 47%
12:00 +35°C° 0 mm 4 mps 728 mmHg 40%
13:00 +36°C° 0 mm 4 mps 728 mmHg 33%
14:00 +36°C° 0 mm 4 mps 728 mmHg 32%
15:00 +36°C° 0 mm 4 mps 728 mmHg 32%
16:00 +36°C° 0 mm 5 mps 728 mmHg 31%
17:00 +34°C° 0 mm 4 mps 728 mmHg 38%
18:00 +30°C° 0 mm 3 mps 728 mmHg 45%
19:00 +28°C° 0 mm 3 mps 729 mmHg 52%
20:00 +26°C° 0 mm 2 mps 729 mmHg 56%
21:00 +25°C° 0 mm 2 mps 729 mmHg 60%
22:00 +23°C° 0 mm 1 mps 730 mmHg 65%
23:00 +22°C° 0 mm 1 mps 730 mmHg 67%

Tomorrow, 31 July, Saturday

Time Temperature Precipitation Wind Pressure Humidity
00:00 +22°C° 0 mm 1 mps 730 mmHg 69%
01:00 +21°C° 0 mm 1 mps 730 mmHg 72%
02:00 +20°C° 0 mm 1 mps 730 mmHg 74%
03:00 +18°C° 0 mm 0 mps 730 mmHg 76%
04:00 +17°C° 0 mm 0 mps 730 mmHg 78%
05:00 +18°C° 0 mm 0 mps 731 mmHg 75%
06:00 +18°C° 0 mm 0 mps 731 mmHg 73%
07:00 +19°C° 0 mm 0 mps 731 mmHg 70%
08:00 +23°C° 0 mm 1 mps 731 mmHg 63%
09:00 +25°C° 0 mm 1 mps 732 mmHg 55%
10:00 +27°C° 0 mm 1 mps 732 mmHg 48%
11:00 +28°C° 0 mm 1 mps 731 mmHg 44%
12:00 +30°C° 0 mm 2 mps 731 mmHg 40%
13:00 +32°C° 0 mm 2 mps 730 mmHg 36%
14:00 +32°C° 0 mm 2 mps 730 mmHg 36%
15:00 +32°C° 0 mm 2 mps 730 mmHg 36%
16:00 +32°C° 0 mm 2 mps 729 mmHg 36%
17:00 +30°C° 0 mm 2 mps 729 mmHg 44%
18:00 +28°C° 0 mm 1 mps 729 mmHg 51%
19:00 +24°C° 0 mm 0 mps 729 mmHg 59%
20:00 +24°C° 0 mm 0 mps 729 mmHg 58%
21:00 +23°C° 0 mm 0 mps 729 mmHg 57%
22:00 +23°C° 0 mm 0 mps 729 mmHg 56%
23:00 +23°C° 0.2 mm 1 mps 729 mmHg 66%

Day after tomorrow, 1 August, Sunday

Time Temperature Precipitation Wind Pressure Humidity
00:00 +22°C° 0.2 mm 1 mps 729 mmHg 77%
01:00 +20°C° 0.2 mm 1 mps 729 mmHg 87%
02:00 +20°C° 0 mm 1 mps 729 mmHg 88%
03:00 +20°C° 0 mm 1 mps 729 mmHg 88%
04:00 +19°C° 0 mm 1 mps 729 mmHg 89%
05:00 +20°C° 0 mm 1 mps 729 mmHg 87%
06:00 +20°C° 0 mm 1 mps 729 mmHg 86%
07:00 +19°C° 0 mm 0 mps 729 mmHg 84%
08:00 +23°C° 0 mm 1 mps 729 mmHg 72%
09:00 +26°C° 0 mm 1 mps 729 mmHg 60%
10:00 +28°C° 0 mm 1 mps 729 mmHg 48%
11:00 +29°C° 0 mm 1 mps 728 mmHg 44%
12:00 +31°C° 0 mm 2 mps 728 mmHg 40%
13:00 +32°C° 0 mm 2 mps 728 mmHg 36%
14:00 +33°C° 0 mm 3 mps 728 mmHg 35%
15:00 +33°C° 0 mm 3 mps 727 mmHg 35%
16:00 +33°C° 0 mm 4 mps 727 mmHg 35%
17:00 +32°C° 0 mm 4 mps 727 mmHg 41%
18:00 +29°C° 0 mm 4 mps 727 mmHg 48%
19:00 +27°C° 0 mm 4 mps 728 mmHg 54%
20:00 +25°C° 0 mm 3 mps 728 mmHg 61%
21:00 +23°C° 0 mm 2 mps 728 mmHg 67%
22:00 +21°C° 0 mm 2 mps 728 mmHg 74%
23:00 +20°C° 0 mm 2 mps 728 mmHg 78%

2 August, Monday

Time Temperature Precipitation Wind Pressure Humidity
00:00 +19°C° 0 mm 2 mps 728 mmHg 81%
01:00 +20°C° 0 mm 1 mps 728 mmHg 85%
02:00 +19°C° 0 mm 1 mps 728 mmHg 88%
03:00 +19°C° 0 mm 1 mps 728 mmHg 90%
04:00 +18°C° 0 mm 1 mps 728 mmHg 93%
05:00 +19°C° 0 mm 1 mps 729 mmHg 88%
06:00 +20°C° 0 mm 1 mps 729 mmHg 84%
07:00 +21°C° 0 mm 1 mps 729 mmHg 80%
08:00 +23°C° 0 mm 1 mps 729 mmHg 70%
09:00 +26°C° 0 mm 1 mps 729 mmHg 59%
10:00 +28°C° 0 mm 2 mps 730 mmHg 49%
11:00 +29°C° 0 mm 2 mps 729 mmHg 45%
12:00 +30°C° 0 mm 1 mps 729 mmHg 41%
13:00 +31°C° 0 mm 1 mps 729 mmHg 37%
14:00 +31°C° 0 mm 1 mps 728 mmHg 39%
15:00 +30°C° 0 mm 1 mps 728 mmHg 41%
16:00 +30°C° 0 mm 1 mps 727 mmHg 42%
17:00 +29°C° 0 mm 1 mps 727 mmHg 46%
18:00 +25°C° 0 mm 0 mps 727 mmHg 50%
19:00 +24°C° 0 mm 0 mps 727 mmHg 55%
20:00 +25°C° 0 mm 1 mps 728 mmHg 57%
21:00 +24°C° 0 mm 1 mps 728 mmHg 59%
22:00 +24°C° 0 mm 1 mps 728 mmHg 61%
23:00 +23°C° 0 mm 1 mps 728 mmHg 65%

3 August, Tuesday

Time Temperature Precipitation Wind Pressure Humidity
00:00 +22°C° 0 mm 1 mps 728 mmHg 68%
01:00 +21°C° 0 mm 1 mps 727 mmHg 72%
02:00 +21°C° 0 mm 1 mps 727 mmHg 76%
03:00 +20°C° 0 mm 1 mps 727 mmHg 79%
04:00 +19°C° 0 mm 1 mps 727 mmHg 83%
05:00 +20°C° 0 mm 1 mps 728 mmHg 81%
06:00 +20°C° 0 mm 1 mps 728 mmHg 79%
07:00 +21°C° 0 mm 1 mps 729 mmHg 77%
08:00 +23°C° 0 mm 1 mps 729 mmHg 70%
09:00 +25°C° 0 mm 1 mps 729 mmHg 63%
10:00 +27°C° 0 mm 2 mps 730 mmHg 55%
11:00 +28°C° 0.2 mm 1 mps 729 mmHg 53%
12:00 +29°C° 0.2 mm 1 mps 729 mmHg 50%
13:00 +30°C° 0.2 mm 1 mps 729 mmHg 47%
14:00 +30°C° 0.1 mm 1 mps 729 mmHg 48%
15:00 +29°C° 0.1 mm 1 mps 729 mmHg 50%
16:00 +29°C° 0.1 mm 1 mps 729 mmHg 51%
17:00 +27°C° 0.3 mm 1 mps 729 mmHg 60%
18:00 +26°C° 0.3 mm 1 mps 729 mmHg 69%
19:00 +24°C° 0.3 mm 1 mps 729 mmHg 78%
20:00 +23°C° 1.4 mm 1 mps 730 mmHg 84%
21:00 +21°C° 1.4 mm 1 mps 730 mmHg 90%
22:00 +20°C° 1.4 mm 1 mps 731 mmHg 97%
23:00 +20°C° 1.4 mm 1 mps 731 mmHg 97%

4 August, Wednesday

Time Temperature Precipitation Wind Pressure Humidity
00:00 +20°C° 1.4 mm 1 mps 731 mmHg 98%
01:00 +20°C° 1.4 mm 1 mps 731 mmHg 98%
02:00 +20°C° 0.1 mm 1 mps 731 mmHg 98%
03:00 +20°C° 0.1 mm 1 mps 731 mmHg 98%
04:00 +20°C° 0.1 mm 1 mps 731 mmHg 98%
05:00 +20°C° 0 mm 1 mps 731 mmHg 97%
06:00 +20°C° 0 mm 1 mps 732 mmHg 97%
07:00 +20°C° 0 mm 1 mps 732 mmHg 96%
08:00 +21°C° 0.2 mm 1 mps 732 mmHg 92%
09:00 +22°C° 0.2 mm 1 mps 733 mmHg 88%
10:00 +23°C° 0.2 mm 1 mps 733 mmHg 84%
11:00 +24°C° 0.5 mm 2 mps 733 mmHg 82%
12:00 +25°C° 0.5 mm 2 mps 733 mmHg 80%
13:00 +26°C° 0.5 mm 2 mps 733 mmHg 78%
14:00 +26°C° 0.7 mm 2 mps 732 mmHg 80%
15:00 +26°C° 0.7 mm 3 mps 732 mmHg 81%
16:00 +25°C° 0.7 mm 3 mps 732 mmHg 83%
17:00 +25°C° 0.7 mm 2 mps 732 mmHg 86%
18:00 +24°C° 0.7 mm 2 mps 732 mmHg 88%
19:00 +23°C° 0.7 mm 1 mps 732 mmHg 90%
20:00 +23°C° 0.2 mm 1 mps 732 mmHg 92%
21:00 +22°C° 0.2 mm 1 mps 732 mmHg 94%
22:00 +22°C° 0.2 mm 1 mps 733 mmHg 96%
23:00 +22°C° 0.3 mm 1 mps 733 mmHg 96%
Show more

We Need Your Consent

Meteoprog and our Service Providers may store and access personal data such as cookies, device identifiers or other similar technologies on your device and process such data to personalise content and ads, as well as provide social media features and to analyse the traffic.

  • Store and/or access information on your device

    Cookies, device identifiers or other information can be stored or accessed on your device for the purposes indicated above.

  • Personalised ads and content, ad and content measurement, audience insights, and products development

    Ads and content can be personalised based on a profile. More data can be added to better personalise ads and content. Ad and content performance can be measured. Insights about the audience who saw the ads and content can be derived. Such data can be used to develop or improve user’s experience, systems and software.

By clicking ‘I Agree’ you will allow the use of indicated cookies, device identifiers, web beacons or other similar technologies. Your settings can be changed in the browser on your device.

For certain purposes, legitimate interests may be relied on, rather than consent. You can read more about this in our Privacy and Cookie Policy.